Location: Degersen
(52.2871°N, 9.5716°E)
Time: 01:06:47
(UTC+00:00)

Okean 1-7 - Pass Details

Date: 20 January 2026
Orbit: 566 x 587 km, 82.5° (Epoch: 18 February)

Event Time Altitude Azimuth Distance (km) Brightness Sun altitude
Exits shadow 05:01:11 15° 352° (N) 1,581 5.0 -20.5°
Maximum altitude 05:04:36 81° 79° (E) 589 2.9 -20.0°
Drops below altitude 10° 05:08:46 10° 167° (SSE) 1,885 5.8 -19.4°
Sets 05:10:57 0° 168° (SSE) 2,783 6.7 -19.1°
